Paynesville, MN

9:45 PM CDT on October 18, 2017 (GMT -0500)
Paynesville

Weather History for KPEX - April, 2013

Change the Weather History Date:

Friday, April 26, 2013

  Actual Average (KLJF) Record (KLJF)
Temperature  
Mean Temperature 52 °F -  
Max Temperature 66 °F 66 °F 89 °F (1962)
Min Temperature 38 °F 40 °F 25 °F (1976)
Degree Days  
Heating Degree Days 12    
Growing Degree Days 2 (Base 50)    
Moisture  
Dew Point 36 °F    
Average Humidity 58    
Maximum Humidity 87    
Minimum Humidity 29    
Precipitation  
Precipitation 0.00 in - - ()
Sea Level Pressure  
Sea Level Pressure 30.02 in    
Wind  
Wind Speed 8 mph (NNW)    
Max Wind Speed 12 mph    
Max Gust Speed 16 mph    
Visibility 10 miles    
Events      
Averages and records for this station are not official NWS values.
T = Trace of Precipitation, MM = Missing Value Source: NWS Daily Summary

Daily Weather History Graph

Daily Weather History Graph

Search for Another Location

Airport or City:

Trip Planner

Search our weather history database for the weather conditions in past years. The results will help you decide how hot, cold, wet, or windy it might be!

Date:

Astronomy

Apr. 26, 2013 Rise Set
Actual Time 6:14 AM CDT 8:19 PM CDT
Civil Twilight 5:42 AM CDT 8:51 PM CDT
Nautical Twilight 5:03 AM CDT 9:31 PM CDT
Astronomical Twilight 4:19 AM CDT 10:15 PM CDT
Moon 9:47 PM CDT (4/26) 6:40 AM CDT (4/26)
Length of Visible Light 15h 08m
Length of Day
14h 04m
Full, 99% of the Moon is Illuminated
Apr 26
Full
May 2
Last Quarter
May 9
New
May 17
First Quarter
May 24
Full

Hourly Weather History & Observations

Time (CDT) Temp. Windchill Dew Point Humidity Pressure Visibility Wind Dir Wind Speed Gust Speed Precip Events Conditions
12:13 AM 43.7 °F 37.7 °F 30.2 °F 59% 29.99 in 10.0 mi ESE 11.5 mph - N/A   Scattered Clouds
12:33 AM 43.2 °F 37.0 °F 30.2 °F 60% 29.98 in 10.0 mi East 11.5 mph 16.1 mph N/A   Scattered Clouds
12:53 AM 43.3 °F 37.7 °F 30.6 °F 61% 29.98 in 10.0 mi East 10.4 mph - N/A   Mostly Cloudy
1:13 AM 43.3 °F 38.1 °F 30.9 °F 62% 29.98 in 10.0 mi East 9.2 mph - N/A   Scattered Clouds
1:33 AM 43.3 °F 37.7 °F 31.5 °F 63% 29.97 in 10.0 mi ESE 10.4 mph - N/A   Scattered Clouds
2:13 AM 42.3 °F 37.3 °F 32.0 °F 67% 29.96 in 10.0 mi ENE 8.1 mph - N/A   Mostly Cloudy
2:33 AM 41.9 °F 36.9 °F 32.0 °F 68% 29.96 in 10.0 mi NE 8.1 mph - N/A   Scattered Clouds
2:53 AM 41.7 °F 37.3 °F 32.0 °F 68% 29.95 in 10.0 mi East 6.9 mph - N/A   Clear
3:13 AM 41.5 °F 35.9 °F 32.0 °F 69% 29.94 in 10.0 mi East 9.2 mph - N/A   Scattered Clouds
3:33 AM 40.6 °F 35.4 °F 32.2 °F 72% 29.93 in 10.0 mi ESE 8.1 mph - N/A   Clear
3:53 AM 41.0 °F 35.2 °F 32.9 °F 73% 29.92 in 10.0 mi ESE 9.2 mph - N/A   Clear
4:13 AM 42.4 °F 36.5 °F 33.6 °F 71% 29.91 in 10.0 mi SE 10.4 mph - N/A   Clear
4:33 AM 41.9 °F 36.3 °F 33.6 °F 72% 29.91 in 10.0 mi SE 9.2 mph - N/A   Clear
4:53 AM 41.4 °F 35.7 °F 33.8 °F 74% 29.91 in 10.0 mi SE 9.2 mph - N/A   Clear
5:13 AM 41.2 °F 36.0 °F 34.3 °F 77% 29.91 in 10.0 mi SE 8.1 mph - N/A   Clear
5:33 AM 41.5 °F 36.4 °F 34.7 °F 77% 29.91 in 10.0 mi SE 8.1 mph - N/A   Clear
5:53 AM 41.4 °F 35.7 °F 35.1 °F 78% 29.91 in 10.0 mi SE 9.2 mph - N/A   Clear
6:13 AM 41.2 °F 35.0 °F 35.2 °F 79% 29.91 in 10.0 mi SSE 10.4 mph - N/A   Clear
6:33 AM 40.6 °F 35.4 °F 35.1 °F 80% 29.91 in 10.0 mi SSE 8.1 mph - N/A   Clear
6:53 AM 41.0 °F 35.2 °F 35.4 °F 81% 29.91 in 10.0 mi SSE 9.2 mph - N/A   Clear
7:13 AM 41.5 °F 36.4 °F 35.6 °F 79% 29.92 in 10.0 mi SSE 8.1 mph - N/A   Clear
7:33 AM 42.6 °F 37.2 °F 36.3 °F 78% 29.93 in 10.0 mi South 9.2 mph - N/A   Clear
7:53 AM 44.1 °F 39.5 °F 36.7 °F 75% 29.93 in 10.0 mi South 8.1 mph - N/A   Clear
8:13 AM 45.5 °F 41.3 °F 37.6 °F 74% 29.94 in 10.0 mi SSW 8.1 mph - N/A   Clear
8:33 AM 46.6 °F - 38.1 °F 72% 29.94 in 10.0 mi SSW 6.9 mph - N/A   Clear
8:53 AM 48.7 °F - 38.3 °F 67% 29.95 in 10.0 mi WSW 8.1 mph - N/A   Clear
9:13 AM 50.0 °F - 38.3 °F 64% 29.97 in 10.0 mi West 9.2 mph - N/A   Clear
9:33 AM 51.8 °F - 38.7 °F 61% 29.97 in 10.0 mi WNW 8.1 mph - N/A   Clear
9:53 AM 52.9 °F - 39.4 °F 60% 29.98 in 10.0 mi NW 8.1 mph - N/A   Clear
10:13 AM 52.7 °F - 39.7 °F 61% 29.99 in 10.0 mi NW 9.2 mph - N/A   Clear
10:33 AM 53.8 °F - 40.3 °F 60% 30.00 in 10.0 mi NNW 6.9 mph - N/A   Clear
10:53 AM 54.1 °F - 41.2 °F 62% 30.01 in 10.0 mi WNW 4.6 mph - N/A   Clear
11:13 AM 55.4 °F - 41.4 °F 59% 30.02 in 10.0 mi North 6.9 mph - N/A   Clear
11:33 AM 55.9 °F - 42.4 °F 61% 30.03 in 10.0 mi NW 8.1 mph - N/A   Clear
11:53 AM 56.7 °F - 43.5 °F 61% 30.04 in 10.0 mi NW 6.9 mph - N/A   Clear
12:13 PM 58.3 °F - 42.4 °F 56% 30.04 in 10.0 mi NW 10.4 mph - N/A   Clear
12:33 PM 59.0 °F - 42.6 °F 55% 30.04 in 10.0 mi Calm Calm - N/A   Clear
12:53 PM 61.0 °F - 41.7 °F 49% 30.04 in 10.0 mi ENE 4.6 mph - N/A   Clear
1:13 PM 61.7 °F - 39.9 °F 45% 30.04 in 10.0 mi Calm Calm - N/A   Clear
1:33 PM 62.6 °F - 39.0 °F 42% 30.04 in 10.0 mi Calm Calm - N/A   Clear
1:53 PM 63.9 °F - 39.4 °F 41% 30.04 in 10.0 mi Calm Calm - N/A   Clear
2:13 PM 65.5 °F - 36.7 °F 35% 30.05 in 10.0 mi NNW 6.9 mph - N/A   Clear
2:33 PM 66.0 °F - 38.5 °F 36% 30.05 in 10.0 mi NNW 6.9 mph - N/A   Clear
2:53 PM 65.8 °F - 41.9 °F 42% 30.05 in 10.0 mi NNW 6.9 mph - N/A   Clear
3:13 PM 64.9 °F - 44.2 °F 47% 30.06 in 10.0 mi NW 9.2 mph - N/A   Clear
3:33 PM 65.5 °F - 42.4 °F 43% 30.06 in 10.0 mi NNW 10.4 mph - N/A   Clear
3:53 PM 65.7 °F - 39.6 °F 38% 30.06 in 10.0 mi NW 10.4 mph - N/A   Clear
4:13 PM 65.3 °F - 34.7 °F 32% 30.06 in 10.0 mi North 10.4 mph 16.1 mph N/A   Clear
4:33 PM 66.0 °F - 33.1 °F 29% 30.06 in 10.0 mi NNW 9.2 mph - N/A   Clear
4:53 PM 65.5 °F - 33.3 °F 30% 30.07 in 10.0 mi WNW 9.2 mph - N/A   Clear
5:13 PM 65.3 °F - 33.4 °F 31% 30.08 in 10.0 mi NW 10.4 mph - N/A   Clear
5:33 PM 65.3 °F - 32.9 °F 30% 30.08 in 10.0 mi WNW 8.1 mph - N/A   Clear
5:53 PM 64.9 °F - 33.1 °F 31% 30.09 in 10.0 mi NW 10.4 mph - N/A   Clear
6:13 PM 64.8 °F - 32.2 °F 30% 30.09 in 10.0 mi NW 8.1 mph - N/A   Clear
6:32 PM 64.4 °F - 32.0 °F 30% 30.09 in 10.0 mi NW 8.1 mph - N/A   Clear
6:53 PM 63.9 °F - 31.8 °F 30% 30.10 in 10.0 mi NNW 8.1 mph - N/A   Clear
7:13 PM 63.1 °F - 34.2 °F 34% 30.10 in 10.0 mi NW 6.9 mph - N/A   Clear
7:33 PM 62.1 °F - 34.9 °F 36% 30.11 in 10.0 mi NW 3.5 mph - N/A   Clear
7:53 PM 60.8 °F - 33.8 °F 36% 30.11 in 10.0 mi Calm Calm - N/A   Clear
8:13 PM 59.0 °F - 34.0 °F 39% 30.11 in 10.0 mi NW 4.6 mph - N/A   Clear
8:33 PM 58.1 °F - 34.2 °F 41% 30.11 in 10.0 mi Calm Calm - N/A   Clear
8:53 PM 52.9 °F - 36.0 °F 53% 30.12 in 10.0 mi Calm Calm - N/A   Clear
9:13 PM 50.2 °F - 36.0 °F 58% 30.13 in 10.0 mi Calm Calm - N/A   Clear
9:33 PM 47.1 °F - 36.9 °F 68% 30.13 in 10.0 mi Calm Calm - N/A   Clear
9:53 PM 45.3 °F - 36.5 °F 71% 30.14 in 10.0 mi Calm Calm - N/A   Clear
10:13 PM 43.9 °F - 36.1 °F 74% 30.14 in 10.0 mi Calm Calm - N/A   Clear
10:33 PM 43.0 °F - 36.3 °F 77% 30.15 in 10.0 mi Calm Calm - N/A   Clear
10:53 PM 41.7 °F - 36.1 °F 81% 30.15 in 10.0 mi Calm Calm - N/A   Clear
11:13 PM 40.5 °F - 35.8 °F 83% 30.15 in 10.0 mi Calm Calm - N/A   Clear
11:33 PM 39.6 °F - 35.4 °F 85% 30.15 in 10.0 mi Calm Calm - N/A   Clear
11:53 PM 38.7 °F - 35.1 °F 87% 30.15 in 10.0 mi Calm Calm - N/A   Clear